Flag for Uzbekistan Weather past 2 weeks in Samarkand, Uzbekistan

Now
30 °F

Ice fog.


Feels Like: 30 °F
Forecast: 29 / 44 °F
Wind: 1 mph from Southeast

Location: Samarkand

Current Time: Dec 19, 2014 at 12:45:09 AM

Latest Report: Dec 19, 2014 at 12:00 AM


Visibility: 3 mi

Pressure: 30.27 "Hg

Humidity: 86%

Dew point: 27 °F

Location of SamarkandLocation

Historic Weather in Samarkand — Graph

°F

Samarkand temperature yesterday

Maximum temperature yesterday: 41 °F (at 1:00 PM)
Minimum temperature yesterday: 27 °F (at 8:00 AM)
Average temperature yesterday: 34 °F

Past Weeks' High & Low Weather Summary

 TemperatureHumidityPressure
High57 °F (Dec 16, 1:30 PM)100% (Dec 4, 5:00 AM)30.80 "Hg (Dec 4, 5:00 AM)
Low18 °F (Dec 8, 5:00 AM)16% (Dec 15, 2:00 PM)30.09 "Hg (Dec 6, 5:00 AM)
Average33 °F61%30.38 "Hg
* Reported Dec 3 11:00 PM — Dec 18 11:30 PM, Samarkand, Weather by CustomWeather, © 2014

Note: Actual official high and low records may vary slightly from our data, if they occured in-between our weather recording intervals... More about our weather records

Advertising

Samarkand weather history for previous 24 hours

 ConditionsComfort  
Time TempWeatherWind HumidityBarometerVisibility
11:30 PM
Dec 18
28 °FIce fog.1 mph93%30.27 "Hg3 mi
11:00 PM27 °FIce fog.No wind86%30.24 "Hg3 mi
10:30 PM34 °FFog.3 mph87%30.24 "Hg3 mi
10:00 PM32 °FIce fog.2 mph87%30.24 "Hg3 mi
9:30 PM32 °FIce fog.No wind87%30.24 "Hg3 mi
9:00 PM30 °FIce fog.No wind86%30.24 "Hg3 mi
8:00 PM32 °FIce fog.No wind87%30.24 "Hg3 mi
7:30 PM34 °FFog.No wind87%30.24 "Hg3 mi
7:00 PM34 °FFog.No wind81%30.24 "Hg3 mi
6:30 PM36 °FFog.3 mph81%30.24 "Hg3 mi
6:00 PM36 °FFog.3 mph81%30.24 "Hg3 mi
5:30 PM36 °FFog.7 mph81%30.24 "Hg3 mi
5:00 PM37 °FFog.5 mph75%30.24 "Hg3 mi
4:30 PM39 °FFog.No wind70%30.24 "Hg3 mi
4:00 PM39 °FFog.3 mph75%30.21 "Hg3 mi
3:30 PM39 °FOvercast.5 mph75%30.21 "Hg4 mi
3:00 PM41 °FOvercast.7 mph70%30.21 "Hg4 mi
2:30 PM41 °FOvercast.6 mph70%30.21 "Hg4 mi
2:00 PM41 °FScattered clouds.3 mph70%30.21 "Hg4 mi
1:30 PM41 °FScattered clouds.3 mph70%30.21 "Hg4 mi
1:00 PM41 °FScattered clouds.2 mph70%30.21 "Hg4 mi
12:30 PM39 °FBroken clouds.5 mph70%30.21 "Hg4 mi
12:00 PM39 °FScattered clouds.5 mph70%30.24 "Hg4 mi
11:30 AM39 °FPartly sunny.3 mph70%30.27 "Hg4 mi
11:00 AM37 °FClear.5 mph75%30.24 "Hg4 mi
10:30 AM37 °FClear.5 mph75%30.27 "Hg4 mi
10:00 AM36 °FFog.5 mph81%30.27 "Hg3 mi
9:30 AM36 °FFog.5 mph75%30.27 "Hg2 mi
9:00 AM32 °FIce fog.3 mph87%30.27 "Hg1 mi
8:00 AM27 °FIce fog.2 mph86%30.27 "Hg2 mi
7:30 AM30 °FIce fog.1 mph86%30.27 "Hg2 mi
7:00 AM28 °FIce fog.1 mph86%30.27 "Hg2 mi
6:30 AM30 °FIce fog.No wind86%30.27 "Hg2 mi
5:30 AM30 °FIce fog.No wind86%30.24 "Hg2 mi
5:00 AM30 °FIce fog.No wind86%30.24 "Hg2 mi
4:30 AM30 °FIce fog.1 mph86%30.24 "Hg2 mi
4:00 AM30 °FIce fog.2 mph86%30.24 "Hg2 mi
3:00 AM28 °FIce fog.2 mph86%30.24 "Hg2 mi
2:30 AM32 °FIce fog.3 mph80%30.24 "Hg2 mi
2:00 AM30 °FIce fog.2 mph86%30.24 "Hg2 mi
1:30 AM30 °FIce fog.2 mph80%30.24 "Hg2 mi
1:00 AM28 °FIce fog.2 mph86%30.24 "Hg2 mi
12:30 AM30 °FIce fog.2 mph80%30.24 "Hg2 mi
12:00 AM30 °FClear.2 mph86%30.24 "Hg4 mi
Weather by CustomWeather, © 2014

See weather overviewHow to use our weather pages